Regional Weather Roundup
Issued by NWS

Home | Current Version | Previous Version | Graphics & Text | Print | Product List | Glossary Off
Versions: 1 2 3 4 5 6 7 8 9 10 11 12 13 14 15 16 17 18 19 20 21 22 23 24 25 26 27 28 29 30 31 32 33 34 35 36 37 38 39 40 41 42 43 44 45 46 47 48 49 50

000
ASUS43 KMKX 261100
RWRWI

WISCONSIN REGIONAL WEATHER ROUNDUP
NATIONAL WEATHER SERVICE MILWAUKEE/SULLIVAN WI
500 AM CST SUN FEB 26 2017

NOTE: "FAIR" INDICATES FEW OR NO CLOUDS BELOW 12,000 FEET WITH NO
SIGNIFICANT WEATHER AND/OR OBSTRUCTIONS TO VISIBILITY.

WIZ001-002-006>008-014>016-023>028-261200-
NORTHWEST WISCONSIN

CITY           SKY/WX    TMP DP  RH WIND       PRES   REMARKS
SUPERIOR ARPT  CLOUDY    26  23  89 SW5       29.68S WCI  20
ASHLAND        LGT SNOW  23  20  88 SW12      29.69S VSB 1   WCI  12
HAYWARD        FLURRIES  23  16  74 S9        29.69F WCI  13
SIREN          CLOUDY    25  19  78 SW9       29.70F WCI  15
CUMBERLAND     FLURRIES  23  18  80 SW9       29.71S WCI  13
RICE LAKE      CLOUDY    23  17  79 S6        29.74S WCI  15
CHETEK         CLOUDY    22  16  79 S7        29.74F WCI  13
LADYSMITH      CLOUDY    22  16  77 S10       29.74F WCI  11
EAU CLAIRE     NOT AVBL
MENOMONIE      CLOUDY    24  16  73 S5        29.76S WCI  18
NEW RICHMOND   CLOUDY    24  17  73 SW8       29.74S WCI  15
OSCEOLA        CLOUDY    26  18  72 S6        29.76S WCI  19
$$

WIZ003>005-009-010-017-018-261200-
NORTH CENTRAL WISCONSIN

CITY           SKY/WX    TMP DP  RH WIND       PRES   REMARKS
MANITOWISH WTR CLOUDY    18  17  93 S9        29.68F FOG     WCI   7
ARBOR VITAE    MOCLDY    19  15  84 SW9         N/A  FOG     WCI   8
WOODRUFF       MOCLDY    19  15  84 SW9         N/A  FOG     WCI   8
RHINELANDER    CLOUDY    19  14  81 SW10      29.71F WCI   7
EAGLE RIVER    PTCLDY    17  11  79 SW3       29.70F
LAND O LAKES   MOCLDY    17  13  84 S5        29.70F WCI  10
PHILLIPS       CLOUDY    19  16  85 SW10G17   29.70F WCI   8
TOMAHAWK       CLOUDY    18  14  84 S3        29.74F
MEDFORD        CLOUDY    20  14  76 S10       29.74F WCI   9
MERRILL        NOT AVBL
$$

WIZ029-030-035-036-043>047-261200-
CENTRAL WISCONSIN

CITY           SKY/WX    TMP DP  RH WIND       PRES   REMARKS
WAUSAU         CLOUDY    20  15  81 S10       29.77F WCI   9
MOSINEE        MOCLDY    21  18  86 S13       29.80S WCI   9
MARSHFIELD     CLOUDY    20  14  77 S10       29.76F WCI   9
STEVENS POINT  CLOUDY    19  13  76 S9        29.82F WCI   9
WAUPACA        CLOUDY    22  15  75 S7        29.87F WCI  14
WAUTOMA        LGT SNOW  21  17  84 S8        29.87F FOG     WCI  11
WISC RAPIDS    CLOUDY    22  17  81 S9        29.82F WCI  12
CAMP DOUGLAS   NOT AVBL
$$

WIZ011>013-019>022-031-037>040-048>050-261200-
NORTHEAST WISCONSIN

CITY           SKY/WX    TMP DP  RH WIND       PRES   REMARKS
ANTIGO         FLURRIES  18  15  86 S10       29.76F WCI   6
SHAWANO        MOCLDY    21  17  84 S3        29.84F
OCONTO         CLOUDY    19  15  81 S5        29.87F WCI  13
STURGEON BAY   CLOUDY    21  16  81 SW10      29.88F WCI  10
GREEN BAY      CLOUDY    22  19  89 S9        29.88F WCI  12
MANITOWOC      NOT AVBL
APPLETON       CLOUDY    21  14  73 S9        29.86F WCI  11
CLINTONVILLE   FLURRIES  21  16  79 S6        29.85F WCI  14
OSHKOSH        CLOUDY    22  15  75 S12       29.89F WCI  10
$$

WIZ032>034-041-042-053>061-261200-
SOUTHWEST WISCONSIN

CITY           SKY/WX    TMP DP  RH WIND       PRES   REMARKS
LA CROSSE      CLEAR     28  19  69 S10       29.81F WCI  19
SPARTA         CLOUDY    25  18  76 CALM      29.83F
VIROQUA        MOCLDY    23  18  81 S8        29.81F WCI  14
BOSCOBEL       CLOUDY    29  18  63 S6        29.87F WCI  23
PRAIRIE DU CHI CLOUDY    30  16  56 S8        29.86F WCI  23
PLATTEVILLE    CLOUDY    27  22  82 S10       29.89F WCI  17
$$

WIZ056-057-062-063-064-067-068-261200-
SOUTH CENTRAL WISCONSIN

CITY           SKY/WX    TMP DP  RH WIND       PRES   REMARKS
REEDSBURG      CLOUDY    24  17  76 S9        29.86F WCI  14
BARABOO/DELLS  CLOUDY    23  17  78 S9        29.87F WCI  13
LONE ROCK      NOT AVBL
MINERAL POINT  CLOUDY    28  23  80 S5        29.87S WCI  23
MADISON        CLOUDY    25  18  74 S8        29.90F WCI  16
MIDDLETON      CLOUDY    26  20  79 S3        29.90F
WATERTOWN      CLOUDY    21  18  87 S3        29.93S
MONROE         CLOUDY    27  21  80 S15       29.91S WCI  15
JANESVILLE     CLOUDY    27  19  74 S9        29.94F WCI  17
$$

WIZ051-052-058>065-066-070>072-261200-
SOUTHEAST WISCONSIN

CITY           SKY/WX    TMP DP  RH WIND       PRES   REMARKS
MILWAUKEE      CLOUDY    24  16  71 S8        29.96F WCI  15
WAUKESHA       PTCLDY    19  16  86 S7        29.95F WCI  10
MILWAUKEE/TIMM CLOUDY    21  14  73 S3        29.97S
RACINE         CLOUDY    24  16  71 S6        29.99F WCI  17
KENOSHA        CLOUDY    24  18  77 S8        29.97F WCI  15
FOND DU LAC    CLOUDY    22  14  71 S8        29.90F WCI  12
SHEBOYGAN      CLOUDY    20  13  74 S10       29.93F WCI   9
WEST BEND      MOCLDY    21  18  86 CALM      29.93F
JUNEAU         CLOUDY    21  17  82 S6        29.93S WCI  14
$$

LSZ147-162-261200-
LAKE SUPERIOR

STATION/POSITION TIME  TEMP    WIND        PRES    WAVE
                       AIR SEA DIR/SP/G            HT/PER
                 (UTC) (F)     (DEG/KT/KT) (MB)    (FT/S)
DEVILS ISLAND    1000   27     210/ 11/ 14 1005.7F
PORT WING        1040   25     200/  8/ 11 1005.4S
SAXON HARBOR     1030   24     200/ 10/ 15 1005.4F
$$

LMZ867-665-643>646-261200-
LAKE MICHIGAN

STATION/POSITION TIME  TEMP    WIND        PRES    WAVE
                       AIR SEA DIR/SP/G            HT/PER
                 (UTC) (F)     (DEG/KT/KT) (MB)    (FT/S)
NORTHPORT PIER   1040   23        CALM     1011.5S
SISTER BAY       1005   22        CALM       N/A
ALGOMA LAKESHORE 0856          230/  8/ 15   N/A
KEWAUNEE LAKESHO 1030   23     240/  7/ 11 1012.5F
SHEBOYGAN LAKESH 1000   22     220/  9/ 10 1015.1F
PORT WASHINGTON  1040   22     210/  5/  7 1015.6F
MILWAUKEE LAKESH 1030   25     200/  8/  9   N/A
KENOSHA   LAKESH 1000   24     210/  3/  9 1016.3
$$

TC  - TEMPERATURE IN CELSIUS
VSB - VISIBILITY IN STATUTE MILES
WCI - WIND CHILL INDEX
HX  - HEAT INDEX




USA.gov is the U.S. government's official web portal to all federal, state and local government web resources and services.